[[{"header":{"parameterUnit":"m.s-1","parameterCategory":2,"la1":30.2991,"la2":30.254,"lo1":-89.0895,"lo2":-89.0444,"dy":0.0017,"dx":0.0017,"nx":28,"ny":28,"refTime":"2025-08-22T21:00:00:Z","depth":"0","parameterNumber":2,"parameterNumberName":"U-component_of_CURRENTS"},"data":[0,0,0,0,0,0,0,0,0,0,0,0,0,0,0,0,0,0,0,0,0,0,0,0,0,0,0,0,0,0,0,0,0,0,0,0,0,0,0,0,0,0,0,0,0,0,0,0,0,0,0,0,0,0,0,0,0,0,0.2971,0.297,0,0.2921,0.2921,0.292,0.2895,0.2895,0.2895,0.2895,0.2868,0.2867,0.2867,0,0,0,0,0,0,0,0,0,0,0,0,0,0.2987,0.2987,0.2971,0.297,0.297,0.2922,0.2921,0.292,0.2895,0.2895,0.2895,0.2895,0.2868,0.2867,0.2866,0,0,0,0,0,0,0,0,0,0,0,0,0,0.2962,0.2987,0.2971,0.2952,0.295,0.2922,0.2921,0.292,0.2895,0.2895,0.2895,0.2895,0.2869,0.2868,0.2866,0.2856,0,0,0.2863,0.2862,0,0,0,0,0,0,0,0,0.2963,0.2961,0.2956,0.2954,0.2951,0.2915,0.2916,0.29,0.2895,0.2915,0.2895,0.2895,0.2887,0.2884,0.2872,0.2855,0.2854,0.2863,0.2862,0.2861,0.2861,0,0,0,0,0,0,0,0.2965,0.2963,0.295,0.2955,0.2952,0.2927,0.2924,0.2913,0.29,0.2913,0.2911,0.2908,0.2886,0.2874,0.2872,0.2854,0.2863,0.2862,0.2861,0.286,0.2865,0.2866,0,0,0,0,0,0,0.2977,0.2965,0.2952,0.2949,0.2959,0.2927,0.2924,0.2926,0.29,0.2896,0.2908,0.2907,0.2876,0.2873,0.2871,0.2891,0.2861,0.286,0.286,0.2865,0.2866,0.2867,0,0,0,0,0,0,0.2977,0.2976,0.2954,0.2956,0.2952,0.2927,0.293,0.2925,0.2917,0.2896,0.2892,0.2906,0.2876,0.2872,0.2868,0.2889,0.286,0.2859,0.2864,0.2865,0.2866,0.291,0,0,0,0,0,0,0.2978,0.2977,0.2985,0.2957,0.2952,0.2945,0.2929,0.2924,0.2915,0.2913,0.2893,0.289,0.2875,0.2869,0.2866,0.2887,0.2858,0.2862,0.2864,0.2866,0.2908,0.2913,0.2917,0,0,0,0,0,0.2979,0.2991,0.2986,0.2984,0.2964,0.2945,0.294,0.2922,0.2915,0.2915,0.2901,0.2891,0.2878,0.2869,0.2865,0.2885,0.2862,0.2864,0.2866,0.2906,0.2912,0.2917,0,0,0,0,0,0,0.3,0.2989,0.2983,0.2991,0.2973,0.2942,0.2941,0.2926,0.2913,0.2915,0.2893,0.2889,0.2897,0.2883,0.2874,0.2893,0.2872,0.2873,0.2903,0.2909,0.2914,0.2963,0.2857,0,0,0,0,0,0.301,0.3017,0.2997,0.3002,0.2997,0.2969,0.2961,0.2947,0.293,0.2924,0.2908,0.2899,0.2901,0.2898,0.2892,0.2895,0.2951,0.2909,0.2914,0.2918,0.2956,0.3058,0.3076,0.2873,0.2873,0.2873,0,0,0.3015,0.3014,0.3015,0.3007,0.2992,0.2986,0.2964,0.2955,0.2955,0.2924,0.2921,0.2914,0.2906,0.2914,0.2916,0.2904,0.3005,0.292,0.2924,0.2961,0.3062,0.3082,0.31,0.2874,0.2874,0.2874,0,0,0.303,0.3033,0.3042,0.3032,0.3018,0.3003,0.3003,0.2976,0.2972,0.2963,0.2953,0.2969,0.2941,0.2959,0.2961,0.2991,0.3028,0.2976,0.3039,0.3136,0.3155,0.3172,0.3271,0.3297,0.2977,0.2977,0.2977,0,0.3039,0.3048,0.3039,0.3043,0.3043,0.3014,0.3019,0.3007,0.2981,0.3001,0.297,0.2995,0.2975,0.3028,0.3033,0.3007,0.3069,0.3014,0.3146,0.3164,0.3181,0.3279,0.3307,0.298,0.298,0.2979,0.2979,0,0.3052,0.3061,0.3066,0.3065,0.3065,0.3063,0.3051,0.3055,0.3044,0.3042,0.3085,0.307,0.3101,0.3085,0.3062,0.3168,0.3176,0.3143,0.3138,0.3205,0.3303,0.3331,0.2983,0.2982,0.2982,0.2981,0,0,0.3061,0.3074,0.3074,0.3088,0.3081,0.3082,0.3099,0.3119,0.3167,0.314,0.3219,0.3202,0.3218,0.3226,0.3212,0.328,0.3432,0.3264,0.3267,0.3375,0.3668,0.3609,0.3634,0.3424,0.3429,0.3433,0.369,0,0.3072,0.3092,0.3098,0.3118,0.3128,0.3133,0.3162,0.3182,0.3206,0.3273,0.3287,0.3344,0.3264,0.3304,0.3357,0.3421,0.3509,0.3367,0.3577,0.3584,0.3534,0.3666,0.3468,0.3674,0.3717,0.3722,0.3725,0,0.3077,0.3095,0.312,0.317,0.3179,0.3191,0.3268,0.3292,0.3377,0.3411,0.3474,0.3497,0.3592,0.3519,0.3683,0.3598,0.3652,0.369,0.37,0.3658,0.3579,0.3613,0.3724,0.3604,0.3769,0.3766,0.3763,0,0.3085,0.3114,0.3142,0.3148,0.3193,0.3227,0.3258,0.3335,0.3394,0.3523,0.3598,0.3694,0.3759,0.3849,0.3888,0.382,0.4083,0.3997,0.4004,0.4001,0.3884,0.386,0.3917,0.4157,0.4156,0.4155,0.4155,0,0.3095,0.3114,0.3147,0.3161,0.3222,0.3249,0.3345,0.3399,0.3515,0.3613,0.3673,0.3782,0.3847,0.397,0.4003,0.4103,0.4181,0.4076,0.4083,0.3889,0.3865,0.3792,0.373,0.4165,0.4163,0.4161,0.4159,0,0.3094,0.3108,0.3146,0.3202,0.3224,0.3267,0.3375,0.3452,0.3557,0.3701,0.3754,0.3892,0.4049,0.412,0.4287,0.4244,0.4233,0.4367,0.4134,0.4108,0.395,0.3897,0.3885,0.3779,0.4438,0.4438,0.4439,0,0.3095,0.3113,0.3172,0.3203,0.3227,0.3298,0.3357,0.3459,0.3538,0.3759,0.3827,0.4025,0.4126,0.4345,0.434,0.4438,0.4283,0.4305,0.4125,0.3973,0.3921,0.3749,0.3646,0.3998,0.3995,0.3992,0.399,0,0.3109,0.3127,0.3162,0.3216,0.3266,0.3332,0.3414,0.3472,0.3607,0.3732,0.3891,0.4004,0.4182,0.4177,0.4287,0.4302,0.4069,0.4251,0.4161,0.3662,0.3416,0.3302,0.3806,0.3965,0.3968,0.397,0.3971,0.3972,0.3124,0.3141,0.318,0.322,0.328,0.3322,0.3331,0.3427,0.3527,0.3629,0.3827,0.3891,0.3982,0.4087,0.4096,0.3937,0.3929,0.379,0.3772,0.3639,0.3418,0.3876,0.3983,0.3985,0.3987,0.3989,0.3991,0,0.3112,0.3128,0.3183,0.3209,0.3231,0.3276,0.333,0.3298,0.3339,0.3471,0.3572,0.3617,0.3629,0.3663,0.3599,0.3467,0.3284,0.3372,0.3074,0.3024,0.3505,0.3362,0.3253,0.3254,0.3254,0.3254,0.3254,0.3254,0.3108,0.3122,0.3126,0.3126,0.3144,0.3089,0.3075,0.305,0.3072,0.3057,0.3043,0.3128,0.3277,0.3309,0.3169,0.3091,0.2852,0.2714,0.2753,0.3066,0.3101,0.3134,0.2985,0.2799,0.2799,0.21,0.2094,0.209]},{"header":{"parameterUnit":"m.s-1","parameterCategory":2,"la1":30.2991,"la2":30.254,"lo1":-89.0895,"lo2":-89.0444,"dy":0.0017,"dx":0.0017,"nx":28,"ny":28,"refTime":"2025-08-22T21:00:00:Z","depth":"0","parameterNumber":3,"parameterNumberName":"V-component_of_CURRENTS"},"data":[0,0,0,0,0,0,0,0,0,0,0,0,0,0,0,0,0,0,0,0,0,0,0,0,0,0,0,0,0,0,0,0,0,0,0,0,0,0,0,0,0,0,0,0,0,0,0,0,0,0,0,0,0,0,0,0,0,0,0.0208,0.0208,0,0.0175,0.0175,0.0174,0.0144,0.0143,0.0143,0.0143,0.0072,0.007,0.0068,0,0,0,0,0,0,0,0,0,0,0,0,0,0.0197,0.0197,0.0208,0.0208,0.0208,0.0175,0.0174,0.0174,0.0144,0.0143,0.0143,0.0143,0.0072,0.007,0.0068,0,0,0,0,0,0,0,0,0,0,0,0,0,0.0184,0.0197,0.0208,0.019,0.0188,0.0175,0.0174,0.0174,0.0144,0.0143,0.0143,0.0143,0.0073,0.007,0.0068,0.0057,0,0,0.006,0.0059,0,0,0,0,0,0,0,0,0.0185,0.0185,0.0193,0.0191,0.0189,0.0165,0.0144,0.0133,0.0144,0.0158,0.0143,0.0143,0.0101,0.0096,0.0088,0.0053,0.005,0.0059,0.0058,0.0057,0.0056,0,0,0,0,0,0,0,0.0186,0.0186,0.0193,0.0193,0.0191,0.0167,0.0166,0.0142,0.0129,0.0157,0.0155,0.0155,0.0099,0.009,0.0086,0.0049,0.006,0.0057,0.0056,0.0055,0.0005,0.0005,0,0,0,0,0,0,0.0198,0.0187,0.0194,0.0192,0.0189,0.0168,0.0166,0.0171,0.013,0.0125,0.0155,0.0154,0.0095,0.0089,0.0083,0.0079,0.0057,0.0054,0.0053,0.0005,0.0005,0.0005,0,0,0,0,0,0,0.0198,0.0199,0.0195,0.019,0.0188,0.0169,0.0175,0.0171,0.0165,0.013,0.0123,0.0154,0.0095,0.0087,0.0067,0.0075,0.0053,0.0051,0.0005,0.0005,0.0005,0.0063,0,0,0,0,0,0,0.0197,0.0199,0.0204,0.0191,0.0189,0.0195,0.0175,0.0171,0.0166,0.0164,0.0126,0.0119,0.0094,0.0072,0.0065,0.0071,0.0049,0.0004,0.0005,0.0005,0.0061,0.0066,0.0069,0,0,0,0,0,0.0197,0.0213,0.0204,0.0205,0.0197,0.0196,0.0193,0.0176,0.0166,0.0169,0.0143,0.0121,0.007,0.007,0.0062,0.0068,0.0004,0.0005,0.0005,0.0059,0.0065,0.0069,0,0,0,0,0,0,0.0212,0.0211,0.0201,0.0216,0.0208,0.0192,0.0193,0.0181,0.0163,0.0159,0.0123,0.0115,0.0099,0.0076,0.0077,0.0054,0.0033,0.0032,0.0077,0.0082,0.0086,0.011,0.0047,0,0,0,0,0,0.0218,0.0228,0.0219,0.0229,0.0228,0.021,0.0206,0.0197,0.018,0.0172,0.0147,0.0119,0.0095,0.0083,0.0058,0.0047,0.0041,0.0045,0.005,0.0053,0.0067,0.0067,0.0073,0.0007,0.0007,0.0007,0,0,0.0225,0.0227,0.0231,0.0233,0.0224,0.0233,0.0207,0.0208,0.0214,0.0167,0.0164,0.0132,0.0095,0.0082,0.0074,0.0065,0.0069,0.0054,0.0058,0.0069,0.0068,0.0074,0.008,0.0008,0.0008,0.0008,0,0,0.0254,0.0248,0.0267,0.0265,0.0261,0.0251,0.0255,0.0242,0.0233,0.0224,0.0192,0.017,0.0133,0.0113,0.0096,0.0109,0.009,0.0096,0.0139,0.0138,0.0144,0.0149,0.0154,0.0159,0.0101,0.0101,0.0101,0,0.0261,0.0288,0.0271,0.0289,0.0296,0.0265,0.0289,0.0273,0.0255,0.0256,0.0231,0.0191,0.015,0.0147,0.0143,0.012,0.0119,0.0124,0.0146,0.0151,0.0155,0.0158,0.0163,0.0104,0.0103,0.0103,0.0103,0,0.0306,0.0324,0.0336,0.0349,0.0351,0.0366,0.035,0.0346,0.0327,0.0315,0.0305,0.0253,0.0233,0.0211,0.0175,0.0185,0.0176,0.0151,0.0138,0.0165,0.0166,0.017,0.0108,0.0107,0.0106,0.0105,0,0,0.0333,0.0364,0.0367,0.0392,0.0388,0.0402,0.0406,0.0412,0.0433,0.0392,0.0424,0.0353,0.0327,0.0306,0.0262,0.0253,0.0265,0.0217,0.0215,0.0231,0.0275,0.0257,0.0259,0.0248,0.0249,0.025,0.0266,0,0.0374,0.0433,0.043,0.0482,0.0513,0.049,0.0502,0.0498,0.0487,0.0505,0.0451,0.0458,0.0363,0.0366,0.0333,0.0294,0.0278,0.0264,0.0238,0.0238,0.0226,0.0264,0.0247,0.026,0.027,0.027,0.0271,0,0.0421,0.0458,0.0519,0.0568,0.0578,0.0596,0.0627,0.0639,0.0637,0.0632,0.0615,0.0581,0.0556,0.048,0.0413,0.0411,0.0343,0.0304,0.0303,0.0271,0.0227,0.0231,0.0266,0.0128,0.0277,0.0276,0.0276,0,0.0467,0.0523,0.058,0.0594,0.0633,0.0654,0.0673,0.0677,0.0716,0.0731,0.0773,0.0711,0.0715,0.0623,0.0508,0.047,0.0453,0.039,0.031,0.0308,0.0282,0.0276,0.0188,0.0346,0.0346,0.0346,0.0346,0,0.0522,0.0569,0.0608,0.0641,0.0714,0.0715,0.0791,0.0795,0.0839,0.092,0.0848,0.0911,0.0752,0.0713,0.058,0.0471,0.0501,0.0334,0.0316,0.03,0.0296,0.0163,0.0068,0.0347,0.0346,0.0346,0.0346,0,0.057,0.0591,0.0665,0.0718,0.074,0.0794,0.0881,0.0938,0.0966,0.1078,0.1101,0.1078,0.1031,0.0873,0.0747,0.0583,0.0394,0.0424,0.0418,0.0398,0.0166,0.0075,-0.0014,-0.0073,0.0336,0.0336,0.0336,0,0.0605,0.0646,0.0726,0.0776,0.0804,0.0886,0.0945,0.0994,0.1073,0.1198,0.1268,0.1261,0.1283,0.1084,0.0808,0.059,0.0426,0.0402,0.0308,0.0168,0.0054,0.0002,-0.0045,0.0298,0.0297,0.0297,0.0296,0,0.0672,0.0691,0.075,0.0848,0.092,0.1021,0.1117,0.1205,0.1293,0.141,0.1556,0.1599,0.1406,0.1178,0.0845,0.0671,0.0294,0.0385,0.0244,0.0024,-0.0039,-0.0109,0.0273,0.0293,0.0293,0.0293,0.0293,0.0294,0.0717,0.0764,0.083,0.0926,0.1015,0.1137,0.1244,0.1371,0.1535,0.1729,0.1759,0.1852,0.1494,0.1048,0.0787,0.0277,0.0279,0.01,0.0007,-0.0025,-0.0105,0.0272,0.0264,0.0264,0.0264,0.0264,0.0264,0,0.0761,0.0812,0.0905,0.1018,0.1126,0.1166,0.1345,0.147,0.1688,0.1862,0.2007,0.1882,0.1444,0.0977,0.0294,-0.0046,-0.0165,-0.0228,-0.0319,-0.0346,-0.0004,-0.0031,-0.0107,-0.0107,-0.0106,-0.0106,-0.0106,-0.0106,0.0785,0.0864,0.0908,0.1082,0.1175,0.134,0.1455,0.1649,0.1803,0.2018,0.2078,0.2106,0.1737,0.0563,-0.0209,-0.0384,-0.0604,-0.0663,-0.0749,-0.0549,-0.0526,-0.0503,-0.0549,-0.0733,-0.0734,-0.1043,-0.1046,-0.1049]}],[{"header":{"parameterUnit":"m.s-1","parameterCategory":2,"la1":30.2991,"la2":30.254,"lo1":-89.0895,"lo2":-89.0444,"dy":0.0017,"dx":0.0017,"nx":28,"ny":28,"refTime":"2025-08-22T21:00:00:Z","depth":"2","parameterNumber":2,"parameterNumberName":"U-component_of_CURRENTS"},"data":[0,0,0,0,0,0,0,0,0,0,0,0,0,0,0,0,0,0,0,0,0,0,0,0,0,0,0,0,0,0,0,0,0,0,0,0,0,0,0,0,0,0,0,0,0,0,0,0,0,0,0,0,0,0,0,0,0,0,0.2419,0.2419,0,0.2432,0.2432,0.2432,0.2435,0.2435,0.2435,0.2436,0.2432,0.2432,0.2432,0,0,0,0,0,0,0,0,0,0,0,0,0,0.2379,0.238,0.2419,0.2419,0.2419,0.2432,0.2432,0.2432,0.2435,0.2435,0.2435,0.2436,0.2432,0.2432,0.2432,0,0,0,0,0,0,0,0,0,0,0,0,0,0.2393,0.238,0.2419,0.2424,0.2425,0.2432,0.2432,0.2432,0.2435,0.2435,0.2435,0.2436,0.2432,0.2432,0.2432,0.2426,0,0,0.2431,0.2431,0,0,0,0,0,0,0,0,0.2392,0.2394,0.2423,0.2424,0.2425,0.2434,0.2417,0.243,0.2435,0.2429,0.2436,0.2436,0.2433,0.2432,0.2431,0.2425,0.2425,0.2431,0.243,0.243,0.243,0,0,0,0,0,0,0,0.2391,0.2393,0.2421,0.2424,0.2425,0.242,0.2422,0.2419,0.2427,0.2429,0.243,0.2435,0.2433,0.2431,0.2431,0.2425,0.2431,0.243,0.243,0.243,0.2456,0.2457,0,0,0,0,0,0,0.2395,0.2392,0.2421,0.2422,0.2411,0.2421,0.2423,0.2429,0.2428,0.2429,0.2435,0.2435,0.2432,0.2432,0.2431,0.2462,0.243,0.243,0.243,0.2456,0.2457,0.2458,0,0,0,0,0,0,0.2394,0.2397,0.2421,0.2409,0.2412,0.2422,0.2428,0.2429,0.2439,0.2433,0.2433,0.2446,0.2432,0.2431,0.244,0.2461,0.243,0.243,0.2454,0.2456,0.2457,0.25,0,0,0,0,0,0,0.2393,0.2397,0.2403,0.241,0.2413,0.2435,0.2428,0.2429,0.2442,0.2443,0.2441,0.2441,0.2432,0.2441,0.244,0.246,0.2429,0.2453,0.2455,0.2457,0.2497,0.2503,0.2507,0,0,0,0,0,0.2391,0.2398,0.2403,0.2407,0.2421,0.2435,0.2437,0.2442,0.2443,0.2451,0.2451,0.2441,0.2451,0.2441,0.244,0.246,0.2453,0.2455,0.2457,0.2495,0.2502,0.2507,0,0,0,0,0,0,0.2385,0.24,0.2405,0.2417,0.2431,0.2437,0.2447,0.2449,0.2455,0.2459,0.2449,0.2448,0.2467,0.2456,0.2445,0.2473,0.2452,0.2454,0.2482,0.2488,0.2493,0.2523,0.2429,0,0,0,0,0,0.2387,0.24,0.2412,0.2425,0.2433,0.2442,0.245,0.2455,0.2462,0.2465,0.2463,0.2465,0.2472,0.2474,0.2477,0.2486,0.252,0.25,0.2505,0.2509,0.2534,0.2609,0.2624,0.2464,0.2464,0.2464,0,0,0.2389,0.2401,0.2408,0.2426,0.2438,0.245,0.2447,0.2466,0.2479,0.2463,0.248,0.2482,0.2479,0.2496,0.2503,0.249,0.257,0.2512,0.2515,0.2538,0.2613,0.2628,0.2643,0.2466,0.2465,0.2465,0,0,0.2398,0.2412,0.2423,0.2437,0.246,0.2466,0.2474,0.2487,0.2497,0.2512,0.251,0.2531,0.2526,0.254,0.2543,0.2576,0.2596,0.257,0.2617,0.2688,0.2703,0.2716,0.2773,0.2791,0.2569,0.2569,0.2569,0,0.2402,0.2418,0.2429,0.2445,0.2462,0.2475,0.2492,0.2502,0.2516,0.2538,0.2524,0.2563,0.2553,0.2596,0.2606,0.259,0.2632,0.2592,0.2697,0.2711,0.2724,0.2779,0.2799,0.2572,0.2571,0.2571,0.2571,0,0.2417,0.2433,0.2445,0.2469,0.2485,0.2508,0.2525,0.2545,0.2557,0.2575,0.2624,0.2624,0.2657,0.2649,0.2635,0.2717,0.2717,0.2698,0.2686,0.2743,0.2797,0.2817,0.2575,0.2574,0.2573,0.2573,0,0,0.2415,0.2449,0.2453,0.2473,0.2504,0.2521,0.2551,0.2591,0.2638,0.2648,0.2721,0.2722,0.2746,0.2753,0.2748,0.2799,0.2909,0.279,0.2793,0.2854,0.3074,0.2987,0.2999,0.2915,0.2919,0.2922,0.3074,0,0.2427,0.2455,0.2472,0.2508,0.2525,0.2557,0.2593,0.2632,0.2673,0.2746,0.2771,0.2836,0.2778,0.282,0.2858,0.2907,0.2964,0.287,0.3005,0.3009,0.2931,0.302,0.2769,0.2877,0.3093,0.3096,0.3098,0,0.2426,0.2451,0.2484,0.254,0.2554,0.2584,0.2665,0.2704,0.28,0.2842,0.291,0.2947,0.3026,0.2979,0.3088,0.3035,0.3068,0.3092,0.3098,0.3021,0.2958,0.2856,0.2904,0.3131,0.3128,0.3126,0.3124,0,0.2412,0.2455,0.2485,0.2504,0.2569,0.2606,0.2653,0.2737,0.2796,0.2935,0.3003,0.3089,0.3154,0.3213,0.3243,0.3192,0.3376,0.3308,0.3261,0.3254,0.307,0.3041,0.3415,0.3415,0.3414,0.3414,0.3414,0,0.2415,0.244,0.2486,0.2513,0.2573,0.2618,0.2711,0.2775,0.2893,0.2981,0.3063,0.3148,0.3221,0.3314,0.3327,0.3361,0.3445,0.3305,0.3303,0.3074,0.3045,0.328,0.3262,0.342,0.3418,0.3417,0.3416,0,0.2396,0.2426,0.2467,0.2541,0.257,0.2618,0.2736,0.2793,0.2917,0.3044,0.3101,0.3231,0.3342,0.3406,0.3523,0.3457,0.3514,0.3507,0.3228,0.3188,0.332,0.3303,0.3467,0.3466,0.3465,0.3464,0.3463,0,0.239,0.2406,0.2481,0.2503,0.2543,0.2622,0.2667,0.2796,0.2853,0.3074,0.3118,0.3293,0.3351,0.3485,0.3463,0.3499,0.3546,0.3264,0.3103,0.3352,0.3334,0.3318,0.3303,0.2879,0.2874,0.2869,0.2865,0,0.2382,0.2406,0.2443,0.2478,0.2524,0.258,0.2658,0.2712,0.2863,0.2956,0.3086,0.3174,0.3308,0.3218,0.3272,0.3247,0.323,0.3168,0.3551,0.2889,0.2805,0.2784,0.2787,0.2825,0.2829,0.2832,0.2834,0.2836,0.2367,0.2371,0.2399,0.2423,0.2485,0.2509,0.2519,0.2588,0.2665,0.276,0.2926,0.2954,0.3013,0.2941,0.2882,0.2841,0.3034,0.2879,0.289,0.2907,0.2796,0.2713,0.2695,0.2698,0.2701,0.2703,0.2705,0,0.2312,0.2298,0.2325,0.2351,0.2367,0.2429,0.2472,0.2433,0.245,0.2565,0.2626,0.2458,0.2421,0.2499,0.2367,0.236,0.2306,0.2265,0.2171,0.2216,0.2254,0.2106,0.1824,0.1821,0.1818,0.1815,0,0,0.2274,0.2249,0.224,0.2211,0.2233,0.2205,0.2198,0.2157,0.2184,0.2145,0.2142,0.231,0.2427,0.2086,0.2054,0.1918,0.2042,0.1845,0.2563,0.2499,0.2533,0.2633,0.2459,0,0,0,0,0]},{"header":{"parameterUnit":"m.s-1","parameterCategory":2,"la1":30.2991,"la2":30.254,"lo1":-89.0895,"lo2":-89.0444,"dy":0.0017,"dx":0.0017,"nx":28,"ny":28,"refTime":"2025-08-22T21:00:00:Z","depth":"2","parameterNumber":3,"parameterNumberName":"V-component_of_CURRENTS"},"data":[0,0,0,0,0,0,0,0,0,0,0,0,0,0,0,0,0,0,0,0,0,0,0,0,0,0,0,0,0,0,0,0,0,0,0,0,0,0,0,0,0,0,0,0,0,0,0,0,0,0,0,0,0,0,0,0,0,0,0.0147,0.0147,0,0.0116,0.0115,0.0114,0.0087,0.0087,0.0087,0.0087,0.0021,0.0019,0.0017,0,0,0,0,0,0,0,0,0,0,0,0,0,0.0133,0.0134,0.0147,0.0147,0.0147,0.0116,0.0115,0.0114,0.0087,0.0087,0.0087,0.0087,0.0021,0.0019,0.0017,0,0,0,0,0,0,0,0,0,0,0,0,0,0.0122,0.0134,0.0147,0.0131,0.0129,0.0116,0.0115,0.0114,0.0087,0.0087,0.0087,0.0086,0.0022,0.0019,0.0017,0.0005,0,0,0.0009,0.0008,0,0,0,0,0,0,0,0,0.0123,0.0123,0.0134,0.0132,0.013,0.0107,0.0086,0.0077,0.0087,0.0101,0.0087,0.0086,0.0048,0.0043,0.0035,0.0002,-0.0001,0.0009,0.0008,0.0007,0.0006,0,0,0,0,0,0,0,0.0124,0.0123,0.0132,0.0133,0.0131,0.0108,0.0106,0.0084,0.0073,0.01,0.0098,0.0098,0.0046,0.0038,0.0033,-0.0001,0.0009,0.0007,0.0006,0.0005,-0.0043,-0.0042,0,0,0,0,0,0,0.0135,0.0125,0.0134,0.0132,0.0128,0.0109,0.0107,0.0113,0.0074,0.0069,0.0098,0.0097,0.0042,0.0036,0.0031,0.0026,0.0007,0.0004,0.0003,-0.0043,-0.0043,-0.0042,0,0,0,0,0,0,0.0135,0.0136,0.0135,0.0128,0.0127,0.011,0.0116,0.0112,0.0106,0.0074,0.0068,0.0097,0.0042,0.0034,0.0016,0.0022,0.0003,0.0001,-0.0043,-0.0043,-0.0043,0.0008,0,0,0,0,0,0,0.0135,0.0137,0.0141,0.013,0.0128,0.0134,0.0116,0.0112,0.0108,0.0105,0.0071,0.0064,0.0041,0.002,0.0014,0.0019,-0.0001,-0.0043,-0.0043,-0.0043,0.0006,0.001,0.0013,0,0,0,0,0,0.0134,0.0149,0.0142,0.0143,0.0136,0.0134,0.0131,0.0116,0.0108,0.0109,0.0086,0.0066,0.0018,0.0019,0.0011,0.0015,-0.0044,-0.0043,-0.0043,0.0004,0.0009,0.0013,0,0,0,0,0,0,0.0145,0.0147,0.0139,0.0153,0.0146,0.0131,0.0131,0.0121,0.0103,0.01,0.0068,0.006,0.0046,0.0024,0.0025,0.0003,-0.0016,-0.0017,0.0022,0.0027,0.003,0.005,-0.0003,0,0,0,0,0,0.0151,0.0161,0.0154,0.0164,0.0163,0.0147,0.0143,0.0134,0.012,0.0112,0.0089,0.0063,0.0042,0.003,0.0007,-0.0005,-0.0022,-0.0008,-0.0004,-0.0,0.001,-0.0009,-0.0006,-0.0041,-0.0041,-0.0041,0,0,0.0157,0.0159,0.0164,0.0166,0.0158,0.0166,0.0144,0.0145,0.0148,0.0107,0.0103,0.0075,0.0041,0.0029,0.002,0.0011,-0.0001,0.0,0.0003,0.0012,-0.0008,-0.0005,-0.0001,-0.004,-0.0041,-0.0041,0,0,0.018,0.0178,0.0195,0.0193,0.019,0.0181,0.0185,0.0174,0.0165,0.0157,0.0128,0.0109,0.0075,0.0055,0.0039,0.005,0.002,0.0038,0.0073,0.0054,0.0057,0.006,0.004,0.004,0.0041,0.0041,0.0041,0,0.0186,0.021,0.0198,0.0213,0.0219,0.0193,0.0213,0.0199,0.0183,0.0182,0.0163,0.0123,0.009,0.0079,0.0079,0.0059,0.0043,0.006,0.006,0.0062,0.0064,0.0043,0.0043,0.0043,0.0043,0.0043,0.0042,0,0.0222,0.0239,0.0249,0.0262,0.0264,0.0277,0.0263,0.0259,0.0244,0.0232,0.0219,0.0175,0.0154,0.0136,0.0107,0.0104,0.0086,0.0068,0.0052,0.0071,0.0047,0.0046,0.0047,0.0046,0.0045,0.0044,0,0,0.0244,0.0271,0.0274,0.0295,0.0294,0.0306,0.0308,0.0311,0.0325,0.029,0.0308,0.0252,0.023,0.0211,0.0173,0.0151,0.0139,0.0117,0.0115,0.0104,0.0098,0.0065,0.006,0.012,0.012,0.012,0.0077,0,0.0276,0.0324,0.0325,0.0367,0.0393,0.0375,0.0384,0.0379,0.0368,0.0376,0.0327,0.0327,0.0258,0.0257,0.0219,0.0168,0.0139,0.0153,0.0077,0.0075,0.0048,0.0058,0.0075,0.0036,0.0075,0.0075,0.0075,0,0.0312,0.0344,0.0394,0.0434,0.0443,0.0459,0.0481,0.049,0.0482,0.0475,0.0456,0.0422,0.0387,0.0332,0.0238,0.025,0.0178,0.0129,0.0125,0.0078,0.0039,0.0023,0.0032,0.0073,0.0073,0.0073,0.0073,0,0.0346,0.0393,0.044,0.0453,0.0486,0.0503,0.052,0.0521,0.0552,0.0552,0.0579,0.0512,0.0505,0.0403,0.0283,0.0265,0.0186,0.0148,0.0047,0.0044,0.0036,0.0031,0.0083,0.0083,0.0083,0.0083,0.0084,0,0.0388,0.0426,0.0462,0.049,0.0551,0.0553,0.0616,0.0618,0.0649,0.0712,0.0641,0.0675,0.0524,0.0457,0.0325,0.0186,0.0212,0.0059,0.0033,0.0052,0.005,0.0064,0.0062,0.0082,0.0082,0.0082,0.0083,0,0.0422,0.0442,0.0505,0.0552,0.0572,0.0618,0.0696,0.0743,0.0758,0.0843,0.0856,0.0806,0.0716,0.0554,0.0401,0.0256,0.0122,0.0064,0.0095,0.0072,-0.0022,-0.002,-0.0054,-0.0056,-0.0057,-0.0058,-0.0059,0,0.0447,0.048,0.0556,0.0602,0.0629,0.0701,0.0755,0.0795,0.0864,0.0934,0.0986,0.0926,0.0895,0.0641,0.039,0.0154,0.0126,0.0005,-0.0038,-0.0012,-0.0035,-0.0031,-0.0028,-0.0029,-0.003,-0.003,-0.0031,0,0.0497,0.0518,0.0573,0.0667,0.0736,0.0828,0.0915,0.0992,0.106,0.1126,0.1201,0.1183,0.0942,0.0702,0.0364,0.0199,0.0038,-0.0014,0.002,-0.0001,0.0006,-0.0014,-0.0011,-0.0035,-0.0034,-0.0034,-0.0034,-0.0034,0.0533,0.0579,0.0648,0.0743,0.0826,0.0946,0.1045,0.1143,0.1266,0.1374,0.1346,0.1316,0.1034,0.0598,0.0314,0.001,0.0015,-0.0101,-0.0097,-0.0094,-0.0087,-0.0083,-0.0139,-0.0139,-0.014,-0.014,-0.014,0,0.0578,0.0632,0.0721,0.0839,0.0941,0.098,0.1145,0.1239,0.1394,0.1463,0.1502,0.1236,0.0958,0.0647,0.0194,-0.0086,-0.0103,-0.0172,-0.0127,-0.0122,-0.0117,-0.011,-0.0169,-0.017,-0.0171,-0.0171,0,0,0.0604,0.0687,0.0737,0.0913,0.1003,0.1159,0.1264,0.1389,0.147,0.1533,0.1514,0.1433,0.1054,0.0723,0.0348,0.0097,0.0051,0.0041,0.0091,0.0193,0.0201,-0.0054,-0.0035,0,0,0,0,0]}],[{"header":{"parameterUnit":"m.s-1","parameterCategory":2,"la1":30.2991,"la2":30.254,"lo1":-89.0895,"lo2":-89.0444,"dy":0.0017,"dx":0.0017,"nx":28,"ny":28,"refTime":"2025-08-22T21:00:00:Z","depth":"4","parameterNumber":2,"parameterNumberName":"U-component_of_CURRENTS"},"data":[0,0,0,0,0,0,0,0,0,0,0,0,0,0,0,0,0,0,0,0,0,0,0,0,0,0,0,0,0,0,0,0,0,0,0,0,0,0,0,0,0,0,0,0,0,0,0,0,0,0,0,0,0,0,0,0,0,0,0.1504,0.1505,0,0.1588,0.1588,0.1589,0.165,0.1651,0.1652,0.1653,0.1715,0.1715,0.1716,0,0,0,0,0,0,0,0,0,0,0,0,0,0.14,0.1402,0.1504,0.1505,0.1507,0.1588,0.1588,0.1589,0.165,0.1651,0.1652,0.1653,0.1714,0.1715,0.1716,0,0,0,0,0,0,0,0,0,0,0,0,0,0.1458,0.1402,0.1504,0.1549,0.1554,0.1587,0.1589,0.159,0.165,0.1651,0.1652,0.1654,0.1714,0.1715,0.1717,0.1702,0,0,0.1721,0.1721,0,0,0,0,0,0,0,0,0.1455,0.1461,0.1541,0.1546,0.1552,0.1612,0.1575,0.1627,0.165,0.1611,0.1653,0.1654,0.1679,0.1684,0.1693,0.1705,0.1707,0.1721,0.1722,0.1722,0.1723,0,0,0,0,0,0,0,0.1451,0.1458,0.1534,0.1542,0.1549,0.1566,0.1575,0.1585,0.1635,0.1614,0.162,0.1633,0.1682,0.1692,0.1695,0.1708,0.1721,0.1722,0.1723,0.1723,0.1805,0.1806,0,0,0,0,0,0,0.1445,0.1454,0.1532,0.1537,0.1508,0.1567,0.1577,0.1589,0.1635,0.1645,0.1632,0.1635,0.1689,0.1693,0.1697,0.1768,0.1722,0.1724,0.1724,0.1803,0.1805,0.1806,0,0,0,0,0,0,0.1442,0.145,0.1528,0.15,0.1512,0.1568,0.1581,0.159,0.1636,0.165,0.1658,0.1672,0.169,0.1695,0.1738,0.1768,0.1724,0.1725,0.1802,0.1804,0.1806,0.1855,0,0,0,0,0,0,0.1438,0.1449,0.1468,0.1499,0.1513,0.157,0.158,0.1591,0.1642,0.1648,0.1686,0.1691,0.1691,0.1736,0.174,0.1769,0.1727,0.18,0.1803,0.1805,0.1852,0.1858,0.1864,0,0,0,0,0,0.1434,0.1449,0.1468,0.1478,0.1533,0.1572,0.1581,0.1622,0.1643,0.1667,0.1696,0.1692,0.1755,0.1739,0.1742,0.1773,0.1799,0.1802,0.1805,0.1849,0.1857,0.1864,0,0,0,0,0,0,0.1415,0.1458,0.1479,0.1508,0.1549,0.1584,0.1614,0.164,0.1682,0.1699,0.1707,0.1714,0.1763,0.1761,0.1743,0.1804,0.1776,0.178,0.1809,0.1816,0.1823,0.1816,0.1728,0,0,0,0,0,0.1418,0.1443,0.1486,0.1514,0.1538,0.1582,0.1609,0.164,0.1676,0.1698,0.1724,0.175,0.1771,0.179,0.1807,0.1838,0.1841,0.1861,0.1867,0.1872,0.187,0.1898,0.1907,0.1816,0.1816,0.1816,0,0,0.142,0.1447,0.1463,0.1513,0.1549,0.1585,0.1602,0.1655,0.169,0.1695,0.1757,0.1776,0.1786,0.1825,0.1846,0.1831,0.1904,0.1876,0.1881,0.1876,0.1902,0.1911,0.1919,0.1818,0.1818,0.1818,0,0,0.1425,0.1462,0.1485,0.1522,0.1584,0.161,0.1633,0.169,0.1725,0.1779,0.1792,0.1831,0.1868,0.188,0.1887,0.1937,0.1937,0.195,0.1977,0.2005,0.2012,0.2018,0.205,0.2058,0.1952,0.1952,0.1952,0,0.1431,0.1461,0.1499,0.1534,0.1567,0.1624,0.1659,0.17,0.1765,0.1789,0.1809,0.1874,0.189,0.1923,0.1947,0.1951,0.1969,0.1947,0.2012,0.2019,0.2024,0.2055,0.2064,0.1955,0.1955,0.1954,0.1954,0,0.1446,0.1486,0.1506,0.1564,0.1604,0.1647,0.1704,0.1754,0.1805,0.1837,0.1901,0.193,0.1965,0.1981,0.1982,0.2032,0.2033,0.2018,0.1991,0.2036,0.2066,0.2074,0.1959,0.1958,0.1957,0.1956,0,0,0.1422,0.15,0.1513,0.1543,0.1626,0.1655,0.172,0.178,0.1824,0.189,0.1943,0.1988,0.2014,0.2025,0.2039,0.2066,0.2134,0.2067,0.2067,0.2095,0.2208,0.2075,0.2072,0.2135,0.2136,0.2138,0.2218,0,0.1429,0.1483,0.1524,0.1585,0.1619,0.1685,0.1734,0.1799,0.1862,0.193,0.1971,0.2034,0.2028,0.2068,0.2091,0.2128,0.2156,0.2114,0.2162,0.2164,0.2037,0.2076,0.2142,0.2224,0.2226,0.2227,0.2228,0,0.1431,0.1467,0.1523,0.1592,0.1615,0.1662,0.175,0.1804,0.1899,0.1953,0.2017,0.2065,0.2131,0.2123,0.2193,0.2172,0.2195,0.2213,0.2216,0.2075,0.2045,0.2166,0.2243,0.2242,0.2241,0.224,0.2239,0,0.1385,0.1465,0.1505,0.1534,0.1624,0.1665,0.1719,0.1813,0.1866,0.1987,0.2048,0.2116,0.2185,0.2215,0.2263,0.2245,0.2334,0.2309,0.2206,0.2198,0.2273,0.2264,0.235,0.235,0.235,0.235,0.2349,0,0.1361,0.1398,0.1494,0.1516,0.1567,0.1646,0.1717,0.1783,0.1894,0.1952,0.2063,0.2124,0.2216,0.2278,0.2291,0.2274,0.2358,0.2213,0.2205,0.2294,0.2288,0.228,0.227,0.2353,0.2352,0.2351,0.2351,0,0.1303,0.1368,0.1415,0.1512,0.1547,0.1588,0.1708,0.1753,0.1879,0.1967,0.2017,0.2162,0.2243,0.2308,0.2379,0.2306,0.2309,0.2282,0.2394,0.2391,0.2149,0.2142,0.2166,0.2162,0.2158,0.2155,0.2153,0,0.1267,0.1296,0.1398,0.1423,0.1473,0.1553,0.16,0.173,0.1783,0.1964,0.1991,0.2139,0.2214,0.2212,0.2287,0.2301,0.2271,0.2253,0.217,0.2138,0.2129,0.2127,0.2125,0.2147,0.2146,0.2145,0.2144,0,0.1196,0.1255,0.1287,0.1346,0.1401,0.1446,0.153,0.1568,0.1715,0.185,0.1926,0.1984,0.2076,0.2131,0.2166,0.2166,0.2248,0.2216,0.2222,0.2144,0.2116,0.211,0.2112,0.2132,0.2134,0.2135,0.2136,0,0.1138,0.1143,0.1199,0.124,0.1294,0.131,0.138,0.145,0.1524,0.1733,0.1757,0.1915,0.2054,0.2064,0.2091,0.2087,0.2046,0.1958,0.1976,0.1991,0.1893,0.183,0.1752,0,0,0,0,0,0.107,0.1061,0.1086,0.111,0.1161,0.1203,0.1308,0.139,0.1556,0.1559,0.1653,0.1731,0.1799,0.1891,0.1851,0.2005,0.2045,0.1946,0.195,0.2065,0.2079,0.1979,0,0,0,0,0,0,0.1019,0.1031,0.1039,0.099,0.1001,0.1041,0.1113,0.1232,0.1251,0.1434,0.1491,0.1614,0.1717,0.1804,0.1815,0.1837,0.1799,0.2046,0.2041,0.2057,0.207,0.2081,0.1983,0,0,0,0,0]},{"header":{"parameterUnit":"m.s-1","parameterCategory":2,"la1":30.2991,"la2":30.254,"lo1":-89.0895,"lo2":-89.0444,"dy":0.0017,"dx":0.0017,"nx":28,"ny":28,"refTime":"2025-08-22T21:00:00:Z","depth":"4","parameterNumber":3,"parameterNumberName":"V-component_of_CURRENTS"},"data":[0,0,0,0,0,0,0,0,0,0,0,0,0,0,0,0,0,0,0,0,0,0,0,0,0,0,0,0,0,0,0,0,0,0,0,0,0,0,0,0,0,0,0,0,0,0,0,0,0,0,0,0,0,0,0,0,0,0,0.0121,0.0121,0,0.0097,0.0097,0.0096,0.0078,0.0078,0.0078,0.0078,0.0029,0.0028,0.0027,0,0,0,0,0,0,0,0,0,0,0,0,0,0.0111,0.0111,0.0121,0.0121,0.0121,0.0097,0.0097,0.0096,0.0078,0.0078,0.0078,0.0078,0.003,0.0028,0.0027,0,0,0,0,0,0,0,0,0,0,0,0,0,0.0103,0.0111,0.0121,0.011,0.0109,0.0097,0.0097,0.0096,0.0078,0.0078,0.0078,0.0078,0.003,0.0029,0.0027,0.0016,0,0,0.0021,0.002,0,0,0,0,0,0,0,0,0.0103,0.0103,0.0112,0.0111,0.0109,0.0092,0.0075,0.0068,0.0079,0.0089,0.0078,0.0078,0.0049,0.0046,0.004,0.0013,0.0011,0.0021,0.0019,0.0019,0.0018,0,0,0,0,0,0,0,0.0104,0.0103,0.011,0.0112,0.011,0.0092,0.0091,0.0074,0.0068,0.0088,0.0087,0.0086,0.0048,0.0041,0.0038,0.0011,0.0021,0.0019,0.0018,0.0017,-0.0021,-0.0021,0,0,0,0,0,0,0.0112,0.0104,0.0111,0.011,0.0108,0.0093,0.0092,0.0096,0.0068,0.0065,0.0086,0.0086,0.0045,0.004,0.0036,0.0033,0.0019,0.0017,0.0016,-0.0021,-0.0021,-0.0021,0,0,0,0,0,0,0.0112,0.0113,0.0112,0.0107,0.0106,0.0094,0.0099,0.0096,0.0093,0.0068,0.0063,0.0086,0.0045,0.0039,0.0026,0.003,0.0016,0.0014,-0.0021,-0.0021,-0.0021,0.0018,0,0,0,0,0,0,0.0112,0.0113,0.0117,0.0108,0.0107,0.011,0.0099,0.0096,0.0093,0.0092,0.0066,0.0062,0.0044,0.0029,0.0024,0.0027,0.0013,-0.0021,-0.0021,-0.0021,0.0017,0.002,0.0022,0,0,0,0,0,0.0111,0.0122,0.0118,0.0119,0.0114,0.0111,0.0108,0.0098,0.0093,0.0094,0.0078,0.0063,0.0027,0.0028,0.0022,0.0025,-0.0021,-0.0021,-0.0021,0.0015,0.0019,0.0022,0,0,0,0,0,0,0.0119,0.0121,0.0116,0.0126,0.012,0.0108,0.0109,0.0102,0.0089,0.0089,0.0064,0.0058,0.0048,0.0031,0.0032,0.0014,0.0,-0.0001,0.003,0.0033,0.0036,0.0049,0.0011,0,0,0,0,0,0.0123,0.0132,0.0127,0.0134,0.0133,0.0121,0.0118,0.0112,0.0101,0.0096,0.008,0.0061,0.0044,0.0035,0.0018,0.0008,-0.0015,0.0006,0.0008,0.0011,0.0018,-0.0012,-0.0011,-0.002,-0.002,-0.002,0,0,0.0128,0.013,0.0135,0.0136,0.013,0.0135,0.0119,0.012,0.0122,0.0092,0.009,0.007,0.0044,0.0034,0.0028,0.0021,-0.0001,0.0011,0.0014,0.0019,-0.0011,-0.001,-0.001,-0.0019,-0.0019,-0.0019,0,0,0.0144,0.0145,0.0156,0.0155,0.0153,0.0147,0.015,0.0141,0.0135,0.0129,0.0109,0.0095,0.0069,0.0054,0.0042,0.0049,0.0015,0.004,0.0065,0.0036,0.0037,0.0037,0.0002,-0.0001,0.0041,0.0042,0.0042,0,0.0148,0.0165,0.0158,0.0168,0.0172,0.0156,0.0169,0.016,0.0148,0.0146,0.0135,0.0102,0.008,0.0068,0.0071,0.0056,0.0031,0.0055,0.004,0.004,0.0039,0.0003,-0.0001,0.0043,0.0043,0.0043,0.0043,0,0.0171,0.0184,0.0191,0.0201,0.0204,0.0212,0.0203,0.0201,0.0192,0.0183,0.0171,0.014,0.0123,0.011,0.0092,0.008,0.0059,0.0048,0.0034,0.0043,0.0004,-0.0001,0.0046,0.0045,0.0045,0.0044,0,0,0.0182,0.0204,0.0207,0.0221,0.0224,0.0231,0.0235,0.0236,0.0243,0.022,0.0224,0.0191,0.0175,0.0161,0.0133,0.0108,0.0079,0.008,0.0077,0.0048,0.0007,-0.0007,-0.0015,0.0062,0.0062,0.0061,-0.0021,0,0.0202,0.0234,0.0238,0.0268,0.0285,0.0277,0.0283,0.0281,0.0272,0.027,0.0234,0.0227,0.0193,0.0188,0.0156,0.0101,0.0069,0.0102,-0.0,-0.0003,-0.0014,-0.0019,0.006,-0.0025,-0.0026,-0.0027,-0.0028,0,0.0222,0.0244,0.0279,0.0309,0.0315,0.0329,0.0344,0.035,0.0337,0.0331,0.0313,0.0285,0.0248,0.022,0.0125,0.0146,0.0083,0.0035,0.003,0.0002,-0.0026,-0.0036,-0.0037,-0.0036,-0.0036,-0.0035,-0.0034,0,0.0238,0.0273,0.0306,0.0316,0.0342,0.0357,0.037,0.037,0.0388,0.0374,0.0383,0.0327,0.0309,0.0222,0.0121,0.0122,0.001,-0.0002,-0.0077,-0.008,-0.0059,-0.0058,-0.0068,-0.0068,-0.0068,-0.0068,-0.0067,0,0.0258,0.0285,0.0319,0.0338,0.0382,0.0387,0.043,0.0429,0.0444,0.0472,0.042,0.0422,0.031,0.0233,0.0132,0.001,0.0015,-0.0074,-0.01,-0.0042,-0.0039,-0.0063,-0.0062,-0.0071,-0.007,-0.007,-0.0069,0,0.0271,0.0291,0.0334,0.0374,0.0393,0.0424,0.0484,0.0517,0.0516,0.055,0.0551,0.0494,0.0391,0.0264,0.012,0.0033,-0.0087,-0.0133,-0.0066,-0.0088,-0.0163,-0.0159,-0.0223,-0.0224,-0.0225,-0.0226,-0.0226,0,0.028,0.0304,0.0366,0.0404,0.0428,0.0483,0.0528,0.0553,0.0595,0.0594,0.0614,0.053,0.0472,0.0261,0.0116,-0.0088,-0.0115,-0.0185,-0.0169,-0.0159,-0.0178,-0.0172,-0.0166,-0.0228,-0.0228,-0.0228,-0.0229,0,0.0299,0.0322,0.0364,0.0444,0.0501,0.0571,0.0634,0.0669,0.0697,0.0695,0.0672,0.0561,0.0442,0.0272,0.0108,-0.0037,-0.0144,-0.0195,-0.0194,-0.018,-0.0166,-0.0183,-0.0176,-0.0232,-0.0232,-0.0231,-0.0231,0,0.0318,0.035,0.0411,0.0484,0.0557,0.0634,0.0668,0.0716,0.0749,0.0743,0.0731,0.0595,0.0518,0.0298,0.0148,-0.0,-0.0036,-0.0083,-0.0088,-0.0086,-0.0025,0.0014,-0.0019,0,0,0,0,0,0.0336,0.0381,0.0451,0.0532,0.0605,0.0654,0.073,0.076,0.0781,0.0776,0.0757,0.0645,0.0423,0.033,0.0181,0.0118,-0.0071,-0.0063,-0.0129,-0.0251,-0.0247,-0.02,0,0,0,0,0,0,0.0351,0.0414,0.0454,0.0557,0.0619,0.0709,0.076,0.0782,0.0781,0.0773,0.0665,0.06,0.0392,0.051,0.0177,0.013,0.0065,-0.0167,-0.017,-0.0253,-0.025,-0.0246,-0.0197,0,0,0,0,0]}]]